Terminal Aerodrome Forecast
Issued by NWS

Home | Current Version | Previous Version | Text Only | Print | Product List | Glossary Off
Versions: 1 2 3 4 5 6 7 8 9 10 11 12 13 14 15 16 17 18 19

000
FTUS42 KMHX 201300 AAA
TAFOAJ
TAF AMD
KOAJ 201348Z 2014/2112 00000KT 2SM BR OVC003
      TEMPO 2014/2015 P6SM NSW SCT005
     FM201500 02005KT P6SM SCT040
     FM201800 VRB04KT P6SM VCTS BKN040CB
     FM210000 VRB02KT P6SM SCT200
     FM210600 VRB02KT 4SM BR SKC
      AMD LTD TO CLD VIS AND WIND=

USA.gov is the U.S. government's official web portal to all federal, state and local government web resources and services.